Time,TemperatureF,DewpointF,PressureIn,WindDirection,WindDirectionDegrees,WindSpeedMPH,WindSpeedGustMPH,Humidity,HourlyPrecipIn,Conditions,Clouds,dailyrainin,SoftwareType,DateUTC
2013-04-26 00:00:00,62.5,45.1,30.13,ESE,121,7.0,12.0,53,0.00,,,0.00,Wunderground v.1.15,2013-04-26 05:00:00,
2013-04-26 00:10:00,62.3,44.9,30.12,SSE,150,8.0,8.0,53,0.00,,,0.00,Wunderground v.1.15,2013-04-26 05:10:00,
2013-04-26 00:15:00,62.3,44.9,30.12,SSE,156,9.0,9.0,53,0.00,,,0.00,Wunderground v.1.15,2013-04-26 05:15:00,
2013-04-26 00:20:00,62.2,44.9,30.11,SSE,153,9.0,12.0,53,0.00,,,0.00,Wunderground v.1.15,2013-04-26 05:20:00,
2013-04-26 00:30:00,62.2,44.9,30.11,SSE,158,10.0,10.0,53,0.00,,,0.00,Wunderground v.1.15,2013-04-26 05:30:00,
2013-04-26 00:35:00,62.1,44.8,30.11,SE,127,10.0,11.0,53,0.00,,,0.00,Wunderground v.1.15,2013-04-26 05:35:00,
2013-04-26 00:40:00,62.0,45.2,30.11,SE,138,10.0,13.0,54,0.00,,,0.00,Wunderground v.1.15,2013-04-26 05:40:00,
2013-04-26 00:45:00,61.8,45.0,30.11,SE,137,9.0,13.0,54,0.00,,,0.00,Wunderground v.1.15,2013-04-26 05:45:00,
2013-04-26 00:50:00,61.7,44.9,30.11,SE,131,10.0,10.0,54,0.00,,,0.00,Wunderground v.1.15,2013-04-26 05:50:00,
2013-04-26 00:55:00,61.7,44.9,30.11,SE,144,10.0,10.0,54,0.00,,,0.00,Wunderground v.1.15,2013-04-26 05:55:00,
2013-04-26 01:00:00,61.6,44.8,30.11,SSE,147,9.0,9.0,54,0.00,,,0.00,Wunderground v.1.15,2013-04-26 06:00:00,
2013-04-26 01:10:00,61.5,44.7,30.11,SE,145,9.0,9.0,54,0.00,,,0.00,Wunderground v.1.15,2013-04-26 06:10:00,
2013-04-26 01:15:00,61.6,44.3,30.12,SE,146,9.0,9.0,53,0.00,,,0.00,Wunderground v.1.15,2013-04-26 06:15:00,
2013-04-26 01:25:00,61.8,45.0,30.12,ESE,121,7.0,8.0,54,0.00,,,0.00,Wunderground v.1.15,2013-04-26 06:25:00,
2013-04-26 01:30:00,61.9,45.1,30.12,SE,142,7.0,12.0,54,0.00,,,0.00,Wunderground v.1.15,2013-04-26 06:30:00,
2013-04-26 01:35:00,62.1,45.2,30.13,SSE,154,7.0,12.0,54,0.00,,,0.00,Wunderground v.1.15,2013-04-26 06:35:00,
2013-04-26 01:40:00,62.2,45.3,30.13,SE,140,7.0,9.0,54,0.00,,,0.00,Wunderground v.1.15,2013-04-26 06:40:00,
2013-04-26 01:45:00,62.3,44.9,30.13,SE,128,7.0,9.0,53,0.00,,,0.00,Wunderground v.1.15,2013-04-26 06:45:00,
2013-04-26 01:55:00,62.5,45.1,30.13,ESE,119,7.0,7.0,53,0.00,,,0.00,Wunderground v.1.15,2013-04-26 06:55:00,
2013-04-26 02:00:00,62.5,45.1,30.14,SE,130,6.0,6.0,53,0.00,,,0.00,Wunderground v.1.15,2013-04-26 07:00:00,
2013-04-26 02:10:00,62.6,45.2,30.13,SE,146,6.0,6.0,53,0.00,,,0.00,Wunderground v.1.15,2013-04-26 07:10:00,
2013-04-26 02:15:00,62.6,45.2,30.13,SSE,153,6.0,6.0,53,0.00,,,0.00,Wunderground v.1.15,2013-04-26 07:15:00,
2013-04-26 02:20:00,62.5,45.6,30.14,SE,144,5.0,6.0,54,0.00,,,0.00,Wunderground v.1.15,2013-04-26 07:20:00,
2013-04-26 02:25:00,62.5,45.6,30.14,SE,146,5.0,7.0,54,0.00,,,0.00,Wunderground v.1.15,2013-04-26 07:25:00,
2013-04-26 02:30:00,62.5,45.6,30.14,SE,146,4.0,7.0,54,0.00,,,0.00,Wunderground v.1.15,2013-04-26 07:30:00,
2013-04-26 02:35:00,62.4,45.5,30.13,SE,146,4.0,7.0,54,0.00,,,0.00,Wunderground v.1.15,2013-04-26 07:35:00,
2013-04-26 02:40:00,62.3,45.4,30.13,SSE,147,5.0,7.0,54,0.00,,,0.00,Wunderground v.1.15,2013-04-26 07:40:00,
2013-04-26 02:50:00,62.2,45.8,30.13,SE,146,5.0,5.0,55,0.00,,,0.00,Wunderground v.1.15,2013-04-26 07:50:00,
2013-04-26 02:55:00,62.2,45.8,30.13,SE,142,5.0,5.0,55,0.00,,,0.00,Wunderground v.1.15,2013-04-26 07:55:00,
2013-04-26 03:00:00,62.1,46.2,30.12,SE,146,5.0,5.0,56,0.00,,,0.00,Wunderground v.1.15,2013-04-26 08:00:00,
2013-04-26 03:10:00,62.0,46.1,30.12,SE,138,5.0,8.0,56,0.00,,,0.00,Wunderground v.1.15,2013-04-26 08:10:00,
2013-04-26 03:15:00,62.0,46.1,30.12,SE,140,5.0,8.0,56,0.00,,,0.00,Wunderground v.1.15,2013-04-26 08:15:00,
2013-04-26 03:20:00,62.0,46.1,30.12,SE,125,5.0,8.0,56,0.00,,,0.00,Wunderground v.1.15,2013-04-26 08:20:00,
2013-04-26 03:25:00,62.0,46.1,30.11,SE,126,6.0,8.0,56,0.00,,,0.00,Wunderground v.1.15,2013-04-26 08:25:00,
2013-04-26 03:30:00,62.0,46.1,30.11,SE,132,6.0,6.0,56,0.00,,,0.00,Wunderground v.1.15,2013-04-26 08:30:00,
2013-04-26 03:35:00,62.0,46.1,30.10,ESE,115,7.0,9.0,56,0.00,,,0.00,Wunderground v.1.15,2013-04-26 08:35:00,
2013-04-26 03:45:00,62.1,46.2,30.09,SE,129,8.0,9.0,56,0.00,,,0.00,Wunderground v.1.15,2013-04-26 08:45:00,
2013-04-26 03:50:00,62.1,45.7,30.09,SE,139,9.0,9.0,55,0.00,,,0.00,Wunderground v.1.15,2013-04-26 08:50:00,
2013-04-26 03:55:00,62.1,46.2,30.09,ESE,123,9.0,9.0,56,0.00,,,0.00,Wunderground v.1.15,2013-04-26 08:55:00,
2013-04-26 04:00:00,62.1,46.2,30.08,ESE,123,8.0,8.0,56,0.00,,,0.00,Wunderground v.1.15,2013-04-26 09:00:00,
2013-04-26 04:10:00,62.0,46.1,30.08,SE,136,9.0,12.0,56,0.00,,,0.00,Wunderground v.1.15,2013-04-26 09:10:00,
2013-04-26 04:15:00,62.0,45.6,30.08,SE,146,9.0,13.0,55,0.00,,,0.00,Wunderground v.1.15,2013-04-26 09:15:00,
2013-04-26 04:20:00,62.1,46.2,30.08,ESE,107,9.0,9.0,56,0.00,,,0.00,Wunderground v.1.15,2013-04-26 09:20:00,
2013-04-26 04:30:00,62.1,46.2,30.08,SE,139,9.0,9.0,56,0.00,,,0.00,Wunderground v.1.15,2013-04-26 09:30:00,
2013-04-26 04:35:00,62.1,45.7,30.09,ESE,120,9.0,9.0,55,0.00,,,0.00,Wunderground v.1.15,2013-04-26 09:35:00,
2013-04-26 04:40:00,62.1,45.7,30.09,SE,146,9.0,14.0,55,0.00,,,0.00,Wunderground v.1.15,2013-04-26 09:40:00,
2013-04-26 04:45:00,62.2,45.3,30.08,SE,139,10.0,14.0,54,0.00,,,0.00,Wunderground v.1.15,2013-04-26 09:45:00,
2013-04-26 04:50:00,62.2,45.3,30.08,ESE,123,11.0,11.0,54,0.00,,,0.00,Wunderground v.1.15,2013-04-26 09:50:00,
2013-04-26 04:55:00,62.2,45.3,30.08,SE,135,10.0,11.0,54,0.00,,,0.00,Wunderground v.1.15,2013-04-26 09:55:00,
2013-04-26 05:00:00,62.2,45.8,30.09,ESE,122,6.0,6.0,55,0.00,,,0.00,Wunderground v.1.15,2013-04-26 10:00:00,
2013-04-26 05:10:00,62.1,45.7,30.09,SE,124,5.0,7.0,55,0.00,,,0.00,Wunderground v.1.15,2013-04-26 10:10:00,
2013-04-26 05:20:00,62.0,46.1,30.09,ESE,117,6.0,8.0,56,0.00,,,0.00,Wunderground v.1.15,2013-04-26 10:20:00,
2013-04-26 05:25:00,61.9,46.0,30.09,ESE,109,6.0,8.0,56,0.00,,,0.00,Wunderground v.1.15,2013-04-26 10:25:00,
2013-04-26 05:30:00,61.8,46.4,30.08,ESE,120,7.0,12.0,57,0.00,,,0.00,Wunderground v.1.15,2013-04-26 10:30:00,
2013-04-26 05:35:00,61.7,46.3,30.08,East,101,8.0,12.0,57,0.00,,,0.00,Wunderground v.1.15,2013-04-26 10:35:00,
2013-04-26 05:40:00,61.6,46.2,30.09,ESE,113,8.0,8.0,57,0.00,,,0.00,Wunderground v.1.15,2013-04-26 10:40:00,
2013-04-26 05:45:00,61.5,46.1,30.09,ESE,105,7.0,13.0,57,0.00,,,0.00,Wunderground v.1.15,2013-04-26 10:45:00,
2013-04-26 05:55:00,61.4,46.0,30.08,SE,129,8.0,9.0,57,0.00,,,0.00,Wunderground v.1.15,2013-04-26 10:55:00,
2013-04-26 06:00:00,61.3,45.9,30.08,ESE,118,7.0,14.0,57,0.00,,,0.00,Wunderground v.1.15,2013-04-26 11:00:00,
2013-04-26 06:10:00,61.3,45.9,30.08,East,90,9.0,9.0,57,0.00,,,0.00,Wunderground v.1.15,2013-04-26 11:10:00,
2013-04-26 06:15:00,61.2,45.8,30.09,ESE,112,8.0,13.0,57,0.00,,,0.00,Wunderground v.1.15,2013-04-26 11:15:00,
2013-04-26 06:20:00,61.2,45.8,30.09,ESE,123,7.0,8.0,57,0.00,,,0.00,Wunderground v.1.15,2013-04-26 11:20:00,
2013-04-26 06:25:00,61.1,46.2,30.09,ESE,121,8.0,8.0,58,0.00,,,0.00,Wunderground v.1.15,2013-04-26 11:25:00,
2013-04-26 06:30:00,61.0,46.1,30.09,SE,136,8.0,8.0,58,0.00,,,0.00,Wunderground v.1.15,2013-04-26 11:30:00,
2013-04-26 06:35:00,60.8,46.4,30.09,ESE,109,7.0,9.0,59,0.00,,,0.00,Wunderground v.1.15,2013-04-26 11:35:00,
2013-04-26 06:40:00,60.7,46.3,30.09,ESE,118,7.0,7.0,59,0.00,,,0.00,Wunderground v.1.15,2013-04-26 11:40:00,
2013-04-26 06:50:00,60.6,46.6,30.09,ESE,115,8.0,8.0,60,0.00,,,0.00,Wunderground v.1.15,2013-04-26 11:50:00,
2013-04-26 06:55:00,60.6,47.5,30.09,ESE,113,8.0,8.0,62,0.00,,,0.00,Wunderground v.1.15,2013-04-26 11:55:00,
2013-04-26 07:00:00,60.6,47.9,30.10,ESE,113,7.0,7.0,63,0.00,,,0.00,Wunderground v.1.15,2013-04-26 12:00:00,
2013-04-26 07:10:00,60.6,47.9,30.10,SE,135,6.0,6.0,63,0.00,,,0.00,Wunderground v.1.15,2013-04-26 12:10:00,
2013-04-26 07:15:00,60.6,48.4,30.10,SE,142,7.0,7.0,64,0.00,,,0.00,Wunderground v.1.15,2013-04-26 12:15:00,
2013-04-26 07:20:00,60.6,48.8,30.10,SE,134,7.0,7.0,65,0.00,,,0.00,Wunderground v.1.15,2013-04-26 12:20:00,
2013-04-26 07:25:00,60.6,49.2,30.10,SE,141,7.0,7.0,66,0.00,,,0.00,Wunderground v.1.15,2013-04-26 12:25:00,
2013-04-26 07:30:00,60.5,49.9,30.11,ESE,123,7.0,7.0,68,0.00,,,0.00,Wunderground v.1.15,2013-04-26 12:30:00,
2013-04-26 07:40:00,60.4,49.8,30.11,SE,136,7.0,7.0,68,0.00,,,0.00,Wunderground v.1.15,2013-04-26 12:40:00,
2013-04-26 07:50:00,60.4,50.2,30.12,SE,125,5.0,5.0,69,0.00,,,0.00,Wunderground v.1.15,2013-04-26 12:50:00,
2013-04-26 07:55:00,60.4,50.2,30.11,SE,132,6.0,6.0,69,0.00,,,0.00,Wunderground v.1.15,2013-04-26 12:55:00,
2013-04-26 08:00:00,60.4,50.2,30.11,ESE,106,6.0,6.0,69,0.00,,,0.00,Wunderground v.1.15,2013-04-26 13:00:00,
2013-04-26 08:10:00,60.4,50.6,30.11,ESE,117,7.0,11.0,70,0.00,,,0.00,Wunderground v.1.15,2013-04-26 13:10:00,
2013-04-26 08:15:00,60.5,50.7,30.11,ESE,120,7.0,11.0,70,0.00,,,0.00,Wunderground v.1.15,2013-04-26 13:15:00,
2013-04-26 08:20:00,60.6,50.8,30.11,ESE,120,8.0,8.0,70,0.00,,,0.00,Wunderground v.1.15,2013-04-26 13:20:00,
2013-04-26 08:25:00,60.7,50.9,30.11,SE,137,7.0,9.0,70,0.00,,,0.00,Wunderground v.1.15,2013-04-26 13:25:00,
2013-04-26 08:30:00,60.8,50.6,30.10,SE,138,8.0,8.0,69,0.00,,,0.00,Wunderground v.1.15,2013-04-26 13:30:00,
2013-04-26 08:40:00,61.1,51.2,30.09,SE,141,10.0,10.0,70,0.00,,,0.00,Wunderground v.1.15,2013-04-26 13:40:00,
2013-04-26 08:45:00,61.3,51.4,30.08,SSE,156,11.0,14.0,70,0.00,,,0.00,Wunderground v.1.15,2013-04-26 13:45:00,
2013-04-26 08:50:00,61.4,51.5,30.05,SE,142,13.0,13.0,70,0.00,,,0.00,Wunderground v.1.15,2013-04-26 13:50:00,
2013-04-26 08:55:00,61.6,51.3,30.10,SE,124,13.0,16.0,69,0.00,,,0.00,Wunderground v.1.15,2013-04-26 13:55:00,
2013-04-26 09:00:00,61.7,51.4,30.11,SE,139,8.0,8.0,69,0.00,,,0.00,Wunderground v.1.15,2013-04-26 14:00:00,
2013-04-26 09:10:00,61.7,51.0,30.13,SE,125,5.0,5.0,68,0.00,,,0.00,Wunderground v.1.15,2013-04-26 14:10:00,
2013-04-26 09:15:00,61.7,51.0,30.12,SE,124,4.0,5.0,68,0.00,,,0.00,Wunderground v.1.15,2013-04-26 14:15:00,
2013-04-26 09:20:00,61.7,51.0,30.13,SE,124,5.0,5.0,68,0.00,,,0.00,Wunderground v.1.15,2013-04-26 14:20:00,
2013-04-26 09:30:00,61.6,50.9,30.14,SE,125,5.0,5.0,68,0.00,,,0.00,Wunderground v.1.15,2013-04-26 14:30:00,
2013-04-26 09:35:00,61.5,51.2,30.14,SE,124,5.0,5.0,69,0.00,,,0.00,Wunderground v.1.15,2013-04-26 14:35:00,
2013-04-26 09:40:00,61.4,51.1,30.13,SE,125,5.0,5.0,69,0.00,,,0.00,Wunderground v.1.15,2013-04-26 14:40:00,
2013-04-26 09:45:00,61.3,51.0,30.13,ESE,123,6.0,7.0,69,0.00,,,0.00,Wunderground v.1.15,2013-04-26 14:45:00,
2013-04-26 09:50:00,61.3,51.4,30.13,ESE,120,6.0,8.0,70,0.00,,,0.00,Wunderground v.1.15,2013-04-26 14:50:00,
2013-04-26 10:00:00,61.3,51.8,30.13,ESE,118,5.0,9.0,71,0.00,,,0.00,Wunderground v.1.15,2013-04-26 15:00:00,
2013-04-26 10:10:00,61.5,52.0,30.12,ESE,116,6.0,6.0,71,0.00,,,0.00,Wunderground v.1.15,2013-04-26 15:10:00,
2013-04-26 10:15:00,61.6,52.5,30.13,ESE,123,6.0,7.0,72,0.00,,,0.00,Wunderground v.1.15,2013-04-26 15:15:00,
2013-04-26 10:25:00,61.8,53.1,30.13,ESE,118,6.0,6.0,73,0.00,,,0.00,Wunderground v.1.15,2013-04-26 15:25:00,
2013-04-26 10:30:00,61.9,53.1,30.13,ESE,122,6.0,6.0,73,0.00,,,0.00,Wunderground v.1.15,2013-04-26 15:30:00,
2013-04-26 10:35:00,62.0,53.2,30.13,SE,131,7.0,7.0,73,0.00,,,0.00,Wunderground v.1.15,2013-04-26 15:35:00,
2013-04-26 10:40:00,62.2,53.8,30.13,SE,136,7.0,7.0,74,0.00,,,0.00,Wunderground v.1.15,2013-04-26 15:40:00,
2013-04-26 10:45:00,62.4,54.0,30.13,SE,138,8.0,8.0,74,0.00,,,0.00,Wunderground v.1.15,2013-04-26 15:45:00,
2013-04-26 10:50:00,62.6,54.6,30.13,SSE,151,7.0,7.0,75,0.00,,,0.00,Wunderground v.1.15,2013-04-26 15:50:00,
2013-04-26 11:00:00,63.1,55.4,30.13,SE,144,7.0,7.0,76,0.00,,,0.00,Wunderground v.1.15,2013-04-26 16:00:00,
2013-04-26 11:10:00,63.2,55.9,30.13,SSE,157,5.0,8.0,77,0.00,,,0.00,Wunderground v.1.15,2013-04-26 16:10:00,
2013-04-26 11:15:00,63.5,56.5,30.13,SSE,159,6.0,8.0,78,0.00,,,0.00,Wunderground v.1.15,2013-04-26 16:15:00,
2013-04-26 11:20:00,63.7,57.1,30.13,SE,144,6.0,6.0,79,0.00,,,0.00,Wunderground v.1.15,2013-04-26 16:20:00,
2013-04-26 11:25:00,64.1,57.8,30.13,SE,136,7.0,10.0,80,0.00,,,0.00,Wunderground v.1.15,2013-04-26 16:25:00,
2013-04-26 11:30:00,64.3,58.0,30.13,SE,140,8.0,8.0,80,0.00,,,0.00,Wunderground v.1.15,2013-04-26 16:30:00,
2013-04-26 11:35:00,64.4,58.1,30.13,SSE,148,8.0,8.0,80,0.00,,,0.00,Wunderground v.1.15,2013-04-26 16:35:00,
2013-04-26 11:45:00,64.9,58.2,30.13,SE,130,7.0,8.0,79,0.00,,,0.00,Wunderground v.1.15,2013-04-26 16:45:00,
2013-04-26 11:50:00,65.1,58.1,30.13,ESE,117,7.0,7.0,78,0.00,,,0.00,Wunderground v.1.15,2013-04-26 16:50:00,
2013-04-26 11:55:00,65.3,57.9,30.12,ESE,110,8.0,9.0,77,0.00,,,0.00,Wunderground v.1.15,2013-04-26 16:55:00,
2013-04-26 12:00:00,65.4,58.0,30.12,ESE,117,8.0,8.0,77,0.00,,,0.00,Wunderground v.1.15,2013-04-26 17:00:00,
2013-04-26 12:10:00,65.8,58.0,30.10,ESE,108,7.0,7.0,76,0.00,,,0.00,Wunderground v.1.15,2013-04-26 17:10:00,
2013-04-26 12:15:00,66.0,57.8,30.10,SE,138,8.0,8.0,75,0.00,,,0.00,Wunderground v.1.15,2013-04-26 17:15:00,
2013-04-26 12:20:00,66.6,58.4,30.10,SE,124,8.0,9.0,75,0.00,,,0.00,Wunderground v.1.15,2013-04-26 17:20:00,
2013-04-26 12:25:00,67.2,58.6,30.09,ESE,120,8.0,9.0,74,0.00,,,0.00,Wunderground v.1.15,2013-04-26 17:25:00,
2013-04-26 12:30:00,67.8,58.8,30.09,ESE,113,8.0,8.0,73,0.00,,,0.00,Wunderground v.1.15,2013-04-26 17:30:00,
2013-04-26 12:35:00,68.5,59.1,30.09,SE,143,8.0,8.0,72,0.00,,,0.00,Wunderground v.1.15,2013-04-26 17:35:00,
2013-04-26 12:45:00,68.5,59.1,30.08,ESE,120,8.0,8.0,72,0.00,,,0.00,Wunderground v.1.15,2013-04-26 17:45:00,
2013-04-26 12:50:00,68.4,59.0,30.08,SSE,150,8.0,8.0,72,0.00,,,0.00,Wunderground v.1.15,2013-04-26 17:50:00,
2013-04-26 12:55:00,68.3,59.3,30.08,SSE,154,7.0,8.0,73,0.00,,,0.00,Wunderground v.1.15,2013-04-26 17:55:00,
2013-04-26 13:00:00,68.4,60.2,30.08,SE,128,7.0,7.0,75,0.00,,,0.00,Wunderground v.1.15,2013-04-26 18:00:00,
2013-04-26 13:10:00,68.5,61.0,30.08,SSW,192,7.0,7.0,77,0.00,,,0.00,Wunderground v.1.15,2013-04-26 18:10:00,
2013-04-26 13:15:00,68.9,62.1,30.08,SSE,155,6.0,9.0,79,0.00,,,0.00,Wunderground v.1.15,2013-04-26 18:15:00,
2013-04-26 13:20:00,69.2,62.4,30.08,SSE,162,6.0,6.0,79,0.00,,,0.00,Wunderground v.1.15,2013-04-26 18:20:00,
2013-04-26 13:25:00,69.4,62.6,30.07,South,178,8.0,9.0,79,0.00,,,0.00,Wunderground v.1.15,2013-04-26 18:25:00,
2013-04-26 13:35:00,70.0,63.2,30.07,SSE,159,8.0,9.0,79,0.00,,,0.00,Wunderground v.1.15,2013-04-26 18:35:00,
2013-04-26 13:40:00,70.5,63.7,30.07,South,169,8.0,14.0,79,0.00,,,0.00,Wunderground v.1.15,2013-04-26 18:40:00,
2013-04-26 13:45:00,70.8,63.6,30.07,SE,132,10.0,14.0,78,0.00,,,0.00,Wunderground v.1.15,2013-04-26 18:45:00,
2013-04-26 13:50:00,70.9,63.7,30.07,South,171,10.0,10.0,78,0.00,,,0.00,Wunderground v.1.15,2013-04-26 18:50:00,
2013-04-26 13:55:00,70.9,63.7,30.07,SSE,157,9.0,13.0,78,0.00,,,0.00,Wunderground v.1.15,2013-04-26 18:55:00,
2013-04-26 14:00:00,70.8,63.6,30.06,SSE,149,9.0,11.0,78,0.00,,,0.00,Wunderground v.1.15,2013-04-26 19:00:00,
2013-04-26 14:10:00,70.9,64.4,30.06,SSE,162,9.0,11.0,80,0.00,,,0.00,Wunderground v.1.15,2013-04-26 19:10:00,
2013-04-26 14:15:00,71.0,64.2,30.05,South,178,8.0,11.0,79,0.00,,,0.00,Wunderground v.1.15,2013-04-26 19:15:00,
2013-04-26 14:20:00,71.2,64.7,30.05,South,174,8.0,9.0,80,0.00,,,0.00,Wunderground v.1.15,2013-04-26 19:20:00,
2013-04-26 14:30:00,71.6,64.7,30.04,South,178,7.0,9.0,79,0.00,,,0.00,Wunderground v.1.15,2013-04-26 19:30:00,
2013-04-26 14:35:00,71.9,65.0,30.04,South,172,7.0,9.0,79,0.00,,,0.00,Wunderground v.1.15,2013-04-26 19:35:00,
2013-04-26 14:40:00,72.2,65.3,30.04,SSE,155,6.0,10.0,79,0.00,,,0.00,Wunderground v.1.15,2013-04-26 19:40:00,
2013-04-26 14:45:00,72.5,65.6,30.04,SSE,161,7.0,10.0,79,0.00,,,0.00,Wunderground v.1.15,2013-04-26 19:45:00,
2013-04-26 14:50:00,72.8,65.5,30.03,SSW,204,6.0,7.0,78,0.00,,,0.00,Wunderground v.1.15,2013-04-26 19:50:00,
2013-04-26 14:55:00,73.1,66.2,30.03,South,180,5.0,7.0,79,0.00,,,0.00,Wunderground v.1.15,2013-04-26 19:55:00,
2013-04-26 15:00:00,73.4,66.1,30.03,South,190,5.0,10.0,78,0.00,,,0.00,Wunderground v.1.15,2013-04-26 20:00:00,
2013-04-26 15:10:00,73.4,65.7,30.02,South,189,5.0,5.0,77,0.00,,,0.00,Wunderground v.1.15,2013-04-26 20:10:00,
2013-04-26 15:20:00,74.0,66.7,30.02,SSW,199,5.0,5.0,78,0.00,,,0.00,Wunderground v.1.15,2013-04-26 20:20:00,
2013-04-26 15:25:00,74.6,66.5,30.01,South,169,5.0,6.0,76,0.00,,,0.00,Wunderground v.1.15,2013-04-26 20:25:00,
2013-04-26 15:30:00,75.4,66.5,30.01,South,182,7.0,7.0,74,0.00,,,0.00,Wunderground v.1.15,2013-04-26 20:30:00,
2013-04-26 15:35:00,75.5,66.2,30.02,South,185,9.0,11.0,73,0.00,,,0.00,Wunderground v.1.15,2013-04-26 20:35:00,
2013-04-26 15:40:00,75.3,66.0,30.01,South,188,8.0,8.0,73,0.00,,,0.00,Wunderground v.1.15,2013-04-26 20:40:00,
2013-04-26 15:45:00,75.0,65.8,30.01,SSW,200,6.0,13.0,73,0.00,,,0.00,Wunderground v.1.15,2013-04-26 20:45:00,
2013-04-26 15:50:00,75.0,66.5,30.02,SW,224,6.0,6.0,75,0.00,,,0.00,Wunderground v.1.15,2013-04-26 20:50:00,
2013-04-26 16:00:00,76.1,67.2,30.01,South,190,6.0,6.0,74,0.00,,,0.00,Wunderground v.1.15,2013-04-26 21:00:00,
2013-04-26 16:10:00,77.5,66.9,29.99,SSE,147,9.0,12.0,70,0.00,,,0.00,Wunderground v.1.15,2013-04-26 21:10:00,
2013-04-26 16:20:00,77.4,66.8,29.99,South,185,9.0,13.0,70,0.00,,,0.00,Wunderground v.1.15,2013-04-26 21:20:00,
2013-04-26 16:25:00,77.9,67.3,29.99,SSW,200,8.0,13.0,70,0.00,,,0.00,Wunderground v.1.15,2013-04-26 21:25:00,
2013-04-26 16:30:00,77.7,67.1,29.98,South,171,8.0,8.0,70,0.00,,,0.00,Wunderground v.1.15,2013-04-26 21:30:00,
2013-04-26 16:35:00,77.6,66.6,29.98,SE,134,9.0,13.0,69,0.00,,,0.00,Wunderground v.1.15,2013-04-26 21:35:00,
2013-04-26 16:40:00,77.9,66.5,29.98,SSE,162,9.0,13.0,68,0.00,,,0.00,Wunderground v.1.15,2013-04-26 21:40:00,
2013-04-26 16:45:00,78.1,67.1,29.99,SSE,166,9.0,13.0,69,0.00,,,0.00,Wunderground v.1.15,2013-04-26 21:45:00,
2013-04-26 16:55:00,77.7,66.7,29.99,SSE,162,9.0,17.0,69,0.00,,,0.00,Wunderground v.1.15,2013-04-26 21:55:00,
2013-04-26 17:00:00,77.4,66.0,29.99,SSW,205,9.0,9.0,68,0.00,,,0.00,Wunderground v.1.15,2013-04-26 22:00:00,
2013-04-26 17:10:00,77.3,65.9,29.98,SSE,158,10.0,12.0,68,0.00,,,0.00,Wunderground v.1.15,2013-04-26 22:10:00,
2013-04-26 17:15:00,77.3,65.9,29.99,South,173,10.0,12.0,68,0.00,,,0.00,Wunderground v.1.15,2013-04-26 22:15:00,
2013-04-26 17:20:00,77.3,66.3,29.99,South,173,10.0,13.0,69,0.00,,,0.00,Wunderground v.1.15,2013-04-26 22:20:00,
2013-04-26 17:25:00,77.2,66.2,29.99,South,180,9.0,13.0,69,0.00,,,0.00,Wunderground v.1.15,2013-04-26 22:25:00,
2013-04-26 17:30:00,77.2,66.2,29.99,South,183,8.0,9.0,69,0.00,,,0.00,Wunderground v.1.15,2013-04-26 22:30:00,
2013-04-26 17:35:00,77.1,66.1,29.98,SSW,206,9.0,9.0,69,0.00,,,0.00,Wunderground v.1.15,2013-04-26 22:35:00,
2013-04-26 17:45:00,76.8,66.3,29.97,SSE,155,10.0,10.0,70,0.00,,,0.00,Wunderground v.1.15,2013-04-26 22:45:00,
2013-04-26 17:50:00,76.7,66.2,29.96,South,177,9.0,9.0,70,0.00,,,0.00,Wunderground v.1.15,2013-04-26 22:50:00,
2013-04-26 17:55:00,76.6,66.1,29.96,SSE,156,10.0,11.0,70,0.00,,,0.00,Wunderground v.1.15,2013-04-26 22:55:00,
2013-04-26 18:00:00,76.5,66.0,29.95,SSE,159,11.0,11.0,70,0.00,,,0.00,Wunderground v.1.15,2013-04-26 23:00:00,
2013-04-26 18:10:00,76.5,66.4,29.96,South,169,10.0,10.0,71,0.00,,,0.00,Wunderground v.1.15,2013-04-26 23:10:00,
2013-04-26 18:15:00,76.7,66.6,29.96,SSE,160,9.0,10.0,71,0.00,,,0.00,Wunderground v.1.15,2013-04-26 23:15:00,
2013-04-26 18:20:00,77.2,67.1,29.96,South,180,8.0,13.0,71,0.00,,,0.00,Wunderground v.1.15,2013-04-26 23:20:00,
2013-04-26 18:25:00,77.6,66.6,29.97,South,179,8.0,13.0,69,0.00,,,0.00,Wunderground v.1.15,2013-04-26 23:25:00,
2013-04-26 18:30:00,77.5,66.5,29.97,SSW,198,9.0,9.0,69,0.00,,,0.00,Wunderground v.1.15,2013-04-26 23:30:00,
2013-04-26 18:35:00,77.1,66.6,29.96,South,178,8.0,9.0,70,0.00,,,0.00,Wunderground v.1.15,2013-04-26 23:35:00,
2013-04-26 18:40:00,76.8,66.3,29.96,SSE,166,9.0,18.0,70,0.00,,,0.00,Wunderground v.1.15,2013-04-26 23:40:00,
2013-04-26 18:50:00,76.4,66.3,29.96,South,171,10.0,10.0,71,0.00,,,0.00,Wunderground v.1.15,2013-04-26 23:50:00,
2013-04-26 19:10:00,75.7,66.0,29.95,SSW,204,9.0,11.0,72,0.00,,,0.00,Wunderground v.1.15,2013-04-27 00:10:00,
2013-04-26 19:15:00,75.6,66.3,29.95,SSE,155,10.0,11.0,73,0.00,,,0.00,Wunderground v.1.15,2013-04-27 00:15:00,
2013-04-26 19:20:00,75.5,66.2,29.95,South,169,10.0,15.0,73,0.00,,,0.00,Wunderground v.1.15,2013-04-27 00:20:00,
2013-04-26 19:25:00,75.4,66.1,29.95,SSE,163,9.0,15.0,73,0.00,,,0.00,Wunderground v.1.15,2013-04-27 00:25:00,
2013-04-26 19:35:00,75.1,66.2,29.94,SSE,165,8.0,12.0,74,0.00,,,0.00,Wunderground v.1.15,2013-04-27 00:35:00,
2013-04-26 19:40:00,75.0,66.1,29.94,SSE,155,9.0,10.0,74,0.00,,,0.00,Wunderground v.1.15,2013-04-27 00:40:00,
2013-04-26 19:45:00,74.9,66.1,29.94,SSW,192,8.0,10.0,74,0.00,,,0.00,Wunderground v.1.15,2013-04-27 00:45:00,
2013-04-26 19:50:00,74.9,66.4,29.95,SSE,165,7.0,7.0,75,0.00,,,0.00,Wunderground v.1.15,2013-04-27 00:50:00,
2013-04-26 19:55:00,74.8,66.3,29.95,South,171,7.0,7.0,75,0.00,,,0.00,Wunderground v.1.15,2013-04-27 00:55:00,
2013-04-26 20:00:00,74.7,66.2,29.95,South,179,6.0,8.0,75,0.00,,,0.00,Wunderground v.1.15,2013-04-27 01:00:00,
2013-04-26 20:10:00,74.4,66.3,29.95,South,178,5.0,5.0,76,0.00,,,0.00,Wunderground v.1.15,2013-04-27 01:10:00,
2013-04-26 20:15:00,74.2,66.1,29.94,South,171,6.0,9.0,76,0.00,,,0.00,Wunderground v.1.15,2013-04-27 01:15:00,
2013-04-26 20:20:00,74.0,66.3,29.95,SSE,162,6.0,6.0,77,0.00,,,0.00,Wunderground v.1.15,2013-04-27 01:20:00,
2013-04-26 20:25:00,73.8,66.1,29.95,SSE,166,6.0,6.0,77,0.00,,,0.00,Wunderground v.1.15,2013-04-27 01:25:00,
2013-04-26 20:35:00,73.4,66.1,29.95,SSE,161,5.0,5.0,78,0.00,,,0.00,Wunderground v.1.15,2013-04-27 01:35:00,
2013-04-26 20:40:00,73.3,66.4,29.95,SSE,165,6.0,6.0,79,0.00,,,0.00,Wunderground v.1.15,2013-04-27 01:40:00,
2013-04-26 20:45:00,73.2,66.3,29.95,South,169,6.0,6.0,79,0.00,,,0.00,Wunderground v.1.15,2013-04-27 01:45:00,
2013-04-26 20:50:00,73.1,66.2,29.96,South,174,6.0,6.0,79,0.00,,,0.00,Wunderground v.1.15,2013-04-27 01:50:00,
2013-04-26 21:00:00,73.1,66.2,29.96,South,180,6.0,6.0,79,0.00,,,0.00,Wunderground v.1.15,2013-04-27 02:00:00,
2013-04-26 21:10:00,73.1,65.8,29.95,South,186,7.0,7.0,78,0.00,,,0.00,Wunderground v.1.15,2013-04-27 02:10:00,
2013-04-26 21:15:00,73.1,66.2,29.96,South,169,6.0,7.0,79,0.00,,,0.00,Wunderground v.1.15,2013-04-27 02:15:00,
2013-04-26 21:25:00,72.9,66.0,29.96,SSE,162,6.0,9.0,79,0.00,,,0.00,Wunderground v.1.15,2013-04-27 02:25:00,
2013-04-26 21:30:00,72.9,66.0,29.97,South,175,6.0,6.0,79,0.00,,,0.00,Wunderground v.1.15,2013-04-27 02:30:00,
2013-04-26 21:35:00,72.8,65.9,29.97,South,182,5.0,6.0,79,0.00,,,0.00,Wunderground v.1.15,2013-04-27 02:35:00,
2013-04-26 21:40:00,72.7,65.8,29.97,South,190,4.0,5.0,79,0.00,,,0.00,Wunderground v.1.15,2013-04-27 02:40:00,
2013-04-26 21:45:00,72.6,65.7,29.98,SSW,207,4.0,5.0,79,0.00,,,0.00,Wunderground v.1.15,2013-04-27 02:45:00,
2013-04-26 21:50:00,72.4,65.9,29.98,South,171,4.0,9.0,80,0.00,,,0.00,Wunderground v.1.15,2013-04-27 02:50:00,
2013-04-26 22:00:00,72.2,65.7,29.98,SSE,165,7.0,8.0,80,0.00,,,0.00,Wunderground v.1.15,2013-04-27 03:00:00,
2013-04-26 22:10:00,71.9,65.8,29.98,SSE,155,6.0,6.0,81,0.00,,,0.00,Wunderground v.1.15,2013-04-27 03:10:00,
2013-04-26 22:15:00,71.8,65.7,29.98,South,182,6.0,6.0,81,0.00,,,0.00,Wunderground v.1.15,2013-04-27 03:15:00,
2013-04-26 22:25:00,71.5,65.7,29.98,SSE,160,5.0,6.0,82,0.00,,,0.00,Wunderground v.1.15,2013-04-27 03:25:00,
2013-04-26 22:30:00,71.3,65.5,29.98,SSE,154,5.0,5.0,82,0.00,,,0.00,Wunderground v.1.15,2013-04-27 03:30:00,
2013-04-26 22:35:00,71.1,65.3,29.98,SSE,161,5.0,5.0,82,0.00,,,0.00,Wunderground v.1.15,2013-04-27 03:35:00,
2013-04-26 22:40:00,71.0,65.6,29.98,SSE,162,5.0,6.0,83,0.00,,,0.00,Wunderground v.1.15,2013-04-27 03:40:00,
2013-04-26 22:45:00,70.8,65.4,29.98,SSE,159,5.0,8.0,83,0.00,,,0.00,Wunderground v.1.15,2013-04-27 03:45:00,
2013-04-26 22:50:00,70.6,65.2,29.98,SSE,165,6.0,6.0,83,0.00,,,0.00,Wunderground v.1.15,2013-04-27 03:50:00,
2013-04-26 22:55:00,70.5,65.4,29.98,SSE,161,6.0,7.0,84,0.00,,,0.00,Wunderground v.1.15,2013-04-27 03:55:00,
2013-04-26 23:00:00,70.4,65.3,29.98,SSE,157,5.0,5.0,84,0.00,,,0.00,Wunderground v.1.15,2013-04-27 04:00:00,
2013-04-26 23:05:00,70.3,65.2,29.98,SSE,157,5.0,5.0,84,0.00,,,0.00,Wunderground v.1.15,2013-04-27 04:05:00,
2013-04-26 23:10:00,70.1,65.0,29.98,SSE,158,5.0,5.0,84,0.00,,,0.00,Wunderground v.1.15,2013-04-27 04:10:00,
2013-04-26 23:15:00,70.0,65.3,29.98,SSE,156,6.0,6.0,85,0.00,,,0.00,Wunderground v.1.15,2013-04-27 04:15:00,
2013-04-26 23:20:00,69.9,65.2,29.97,SSE,162,6.0,6.0,85,0.00,,,0.00,Wunderground v.1.15,2013-04-27 04:20:00,
2013-04-26 23:25:00,69.8,65.1,29.97,SSE,153,7.0,10.0,85,0.00,,,0.00,Wunderground v.1.15,2013-04-27 04:25:00,
2013-04-26 23:30:00,69.8,65.1,29.97,SSE,165,7.0,9.0,85,0.00,,,0.00,Wunderground v.1.15,2013-04-27 04:30:00,
2013-04-26 23:35:00,69.8,65.1,29.97,SSE,153,6.0,9.0,85,0.00,,,0.00,Wunderground v.1.15,2013-04-27 04:35:00,
2013-04-26 23:40:00,69.7,65.0,29.97,SSE,161,6.0,6.0,85,0.00,,,0.00,Wunderground v.1.15,2013-04-27 04:40:00,
2013-04-26 23:45:00,69.7,65.3,29.97,SSE,160,6.0,6.0,86,0.00,,,0.00,Wunderground v.1.15,2013-04-27 04:45:00,
2013-04-26 23:50:00,69.8,65.4,29.97,SSE,166,6.0,6.0,86,0.00,,,0.00,Wunderground v.1.15,2013-04-27 04:50:00,
2013-04-26 23:55:00,69.8,65.4,29.97,SSE,160,6.0,9.0,86,0.00,,,0.00,Wunderground v.1.15,2013-04-27 04:55:00,